Location: Observatory
(52.1446°N, 0.4624°W)
Time: 02:22:03
(UTC+01:00)

ISS - Pass Details

Date: 26 May 2019
Orbit: 408 x 418 km, 51.6° (Epoch: 18 June)

Event Time Altitude Azimuth Distance (km) Brightness Sun altitude
Rises 23:07:32 0° 280° (W) 2,359 0.6 -12.7°
Reaches altitude 10° 23:09:39 10° 276° (W) 1,496 -0.5 -12.9°
Maximum altitude 23:12:58 60° 196° (SSW) 484 -3.7 -13.1°
Enters shadow 23:15:04 20° 121° (ESE) 1,021 -2.3 -13.2°
